When you browse on this site, cookies collect data to enhance your experience and personalize the content and advertising you see.
Visit our Privacy Policy to learn more. By continuing to use the site, you agree to this use of cookies and data.
  • en France
  • Liste des pays
  • À 7 jours
  • Température de l'eau
  • Carte satellitaire
  • Carte météo
  • Widgets météo
  • user-avatar
    Se connecter

    Météo par heure à Lashkar Gah

    Ce jour, 10 Décembre, Lundi

    Heure Température Précipitation Vent Pression Humidité
    00:00 +13°C° 0 mm 4 m/s 693 mmHg 36%
    01:00 +13°C° 0 mm 4 m/s 693 mmHg 37%
    02:00 +12°C° 0 mm 4 m/s 692 mmHg 39%
    03:00 +12°C° 0 mm 3 m/s 692 mmHg 41%
    04:00 +11°C° 0 mm 3 m/s 692 mmHg 43%
    05:00 +11°C° 0 mm 3 m/s 693 mmHg 44%
    06:00 +10°C° 0 mm 3 m/s 693 mmHg 45%
    07:00 +10°C° 0 mm 3 m/s 693 mmHg 46%
    08:00 +12°C° 0 mm 3 m/s 694 mmHg 42%
    09:00 +13°C° 0 mm 3 m/s 694 mmHg 37%
    10:00 +16°C° 0 mm 3 m/s 694 mmHg 33%
    11:00 +17°C° 0 mm 4 m/s 694 mmHg 30%
    12:00 +18°C° 0 mm 4 m/s 694 mmHg 27%
    13:00 +19°C° 0 mm 4 m/s 694 mmHg 25%
    14:00 +18°C° 0 mm 4 m/s 694 mmHg 25%
    15:00 +17°C° 0 mm 5 m/s 694 mmHg 26%
    16:00 +17°C° 0 mm 5 m/s 694 mmHg 26%
    17:00 +17°C° 0 mm 4 m/s 694 mmHg 28%
    18:00 +15°C° 0 mm 4 m/s 694 mmHg 31%
    19:00 +14°C° 0 mm 3 m/s 694 mmHg 34%
    20:00 +13°C° 0 mm 3 m/s 694 mmHg 36%
    21:00 +13°C° 0 mm 3 m/s 694 mmHg 37%
    22:00 +12°C° 0 mm 3 m/s 694 mmHg 39%
    23:00 +13°C° 0 mm 2 m/s 694 mmHg 40%

    Demain, 11 Décembre, Mardi

    Heure Température Précipitation Vent Pression Humidité
    00:00 +12°C° 0 mm 2 m/s 694 mmHg 42%
    01:00 +12°C° 0 mm 2 m/s 694 mmHg 43%
    02:00 +10°C° 0 mm 2 m/s 694 mmHg 45%
    03:00 +10°C° 0 mm 2 m/s 694 mmHg 46%
    04:00 +11°C° 0 mm 1 m/s 694 mmHg 47%
    05:00 +11°C° 0 mm 1 m/s 694 mmHg 48%
    06:00 +10°C° 0 mm 1 m/s 694 mmHg 48%
    07:00 +10°C° 0 mm 1 m/s 695 mmHg 49%
    08:00 +12°C° 0 mm 1 m/s 695 mmHg 44%
    09:00 +13°C° 0 mm 1 m/s 696 mmHg 39%
    10:00 +15°C° 0 mm 1 m/s 697 mmHg 35%
    11:00 +16°C° 0 mm 1 m/s 696 mmHg 32%
    12:00 +16°C° 0 mm 1 m/s 696 mmHg 30%
    13:00 +18°C° 0 mm 1 m/s 696 mmHg 28%
    14:00 +18°C° 0 mm 1 m/s 696 mmHg 28%
    15:00 +17°C° 0 mm 2 m/s 695 mmHg 28%
    16:00 +17°C° 0 mm 2 m/s 695 mmHg 28%
    17:00 +16°C° 0 mm 2 m/s 695 mmHg 30%
    18:00 +15°C° 0 mm 1 m/s 695 mmHg 33%
    19:00 +14°C° 0 mm 1 m/s 696 mmHg 36%
    20:00 +14°C° 0 mm 1 m/s 696 mmHg 37%
    21:00 +13°C° 0 mm 1 m/s 695 mmHg 38%
    22:00 +13°C° 0 mm 1 m/s 695 mmHg 39%
    23:00 +12°C° 0 mm 1 m/s 695 mmHg 40%

    Après-demain, 12 Décembre, Mercredi

    Heure Température Précipitation Vent Pression Humidité
    00:00 +12°C° 0 mm 1 m/s 695 mmHg 41%
    01:00 +12°C° 0 mm 1 m/s 695 mmHg 42%
    02:00 +11°C° 0 mm 1 m/s 695 mmHg 43%
    03:00 +11°C° 0 mm 1 m/s 695 mmHg 44%
    04:00 +10°C° 0 mm 1 m/s 695 mmHg 45%
    05:00 +10°C° 0 mm 1 m/s 695 mmHg 45%
    06:00 +10°C° 0 mm 1 m/s 696 mmHg 46%
    07:00 +10°C° 0 mm 1 m/s 696 mmHg 46%
    08:00 +12°C° 0 mm 1 m/s 697 mmHg 41%
    09:00 +13°C° 0 mm 1 m/s 698 mmHg 36%
    10:00 +15°C° 0 mm 1 m/s 698 mmHg 31%
    11:00 +16°C° 0 mm 1 m/s 698 mmHg 29%
    12:00 +16°C° 0 mm 1 m/s 698 mmHg 28%
    13:00 +18°C° 0 mm 1 m/s 698 mmHg 26%
    14:00 +18°C° 0 mm 1 m/s 697 mmHg 26%
    15:00 +18°C° 0 mm 1 m/s 697 mmHg 26%
    16:00 +18°C° 0 mm 1 m/s 697 mmHg 26%
    17:00 +16°C° 0 mm 1 m/s 697 mmHg 29%
    18:00 +15°C° 0 mm 1 m/s 698 mmHg 31%
    19:00 +14°C° 0 mm 1 m/s 698 mmHg 34%
    20:00 +13°C° 0 mm 1 m/s 698 mmHg 35%
    21:00 +13°C° 0 mm 1 m/s 698 mmHg 36%
    22:00 +12°C° 0 mm 1 m/s 698 mmHg 37%
    23:00 +12°C° 0 mm 1 m/s 698 mmHg 37%

    13 Décembre, Jeudi

    Heure Température Précipitation Vent Pression Humidité
    00:00 +12°C° 0 mm 1 m/s 698 mmHg 38%
    01:00 +11°C° 0 mm 1 m/s 697 mmHg 38%
    02:00 +11°C° 0 mm 1 m/s 697 mmHg 38%
    03:00 +11°C° 0 mm 1 m/s 697 mmHg 39%
    04:00 +10°C° 0 mm 1 m/s 697 mmHg 39%
    05:00 +9°C° 0 mm 2 m/s 698 mmHg 39%
    06:00 +9°C° 0 mm 2 m/s 698 mmHg 39%
    07:00 +9°C° 0 mm 2 m/s 698 mmHg 39%
    08:00 +12°C° 0 mm 2 m/s 699 mmHg 35%
    09:00 +14°C° 0 mm 2 m/s 699 mmHg 31%
    10:00 +15°C° 0 mm 2 m/s 700 mmHg 27%
    11:00 +16°C° 0 mm 1 m/s 699 mmHg 25%
    12:00 +18°C° 0 mm 1 m/s 699 mmHg 24%
    13:00 +16°C° 0 mm 0 m/s 699 mmHg 23%
    14:00 +16°C° 0 mm 0 m/s 698 mmHg 23%
    15:00 +16°C° 0 mm 0 m/s 698 mmHg 23%
    16:00 +16°C° 0 mm 0 m/s 698 mmHg 24%
    17:00 +16°C° 0 mm 1 m/s 698 mmHg 25%
    18:00 +15°C° 0 mm 1 m/s 698 mmHg 26%
    19:00 +14°C° 0 mm 2 m/s 699 mmHg 28%
    20:00 +14°C° 0 mm 2 m/s 699 mmHg 28%
    21:00 +13°C° 0 mm 2 m/s 699 mmHg 28%
    22:00 +12°C° 0 mm 3 m/s 699 mmHg 29%
    23:00 +12°C° 0 mm 3 m/s 698 mmHg 29%

    14 Décembre, Vendredi

    Heure Température Précipitation Vent Pression Humidité
    00:00 +11°C° 0 mm 3 m/s 698 mmHg 30%
    01:00 +11°C° 0 mm 3 m/s 698 mmHg 30%
    02:00 +11°C° 0 mm 3 m/s 698 mmHg 31%
    03:00 +10°C° 0 mm 3 m/s 698 mmHg 31%
    04:00 +10°C° 0 mm 3 m/s 698 mmHg 32%
    05:00 +10°C° 0 mm 3 m/s 698 mmHg 32%
    06:00 +10°C° 0 mm 3 m/s 698 mmHg 33%
    07:00 +10°C° 0 mm 3 m/s 698 mmHg 33%
    08:00 +11°C° 0 mm 3 m/s 699 mmHg 29%
    09:00 +13°C° 0 mm 3 m/s 699 mmHg 25%
    10:00 +16°C° 0 mm 3 m/s 700 mmHg 22%
    11:00 +17°C° 0 mm 2 m/s 699 mmHg 20%
    12:00 +18°C° 0 mm 2 m/s 699 mmHg 18%
    13:00 +19°C° 0 mm 2 m/s 699 mmHg 17%
    14:00 +19°C° 0 mm 1 m/s 698 mmHg 17%
    15:00 +19°C° 0 mm 1 m/s 698 mmHg 18%
    16:00 +19°C° 0 mm 1 m/s 698 mmHg 18%
    17:00 +18°C° 0 mm 1 m/s 698 mmHg 20%
    18:00 +16°C° 0 mm 2 m/s 699 mmHg 21%
    19:00 +15°C° 0 mm 2 m/s 699 mmHg 22%
    20:00 +14°C° 0 mm 2 m/s 699 mmHg 23%
    21:00 +14°C° 0 mm 2 m/s 699 mmHg 23%
    22:00 +13°C° 0 mm 3 m/s 699 mmHg 23%
    23:00 +12°C° 0 mm 3 m/s 698 mmHg 23%

    15 Décembre, Samedi

    Heure Température Précipitation Vent Pression Humidité
    00:00 +12°C° 0 mm 3 m/s 698 mmHg 24%
    01:00 +12°C° 0 mm 3 m/s 698 mmHg 24%
    02:00 +11°C° 0 mm 3 m/s 698 mmHg 24%
    03:00 +11°C° 0 mm 3 m/s 697 mmHg 25%
    04:00 +11°C° 0 mm 3 m/s 697 mmHg 25%
    05:00 +10°C° 0 mm 3 m/s 698 mmHg 25%
    06:00 +10°C° 0 mm 3 m/s 698 mmHg 25%
    07:00 +10°C° 0 mm 3 m/s 698 mmHg 25%
    08:00 +12°C° 0 mm 3 m/s 699 mmHg 22%
    09:00 +14°C° 0 mm 3 m/s 699 mmHg 19%
    10:00 +17°C° 0 mm 3 m/s 700 mmHg 16%
    11:00 +18°C° 0 mm 3 m/s 700 mmHg 15%
    12:00 +19°C° 0 mm 3 m/s 699 mmHg 14%
    13:00 +20°C° 0 mm 2 m/s 699 mmHg 13%
    14:00 +19°C° 0 mm 2 m/s 699 mmHg 13%
    15:00 +19°C° 0 mm 2 m/s 699 mmHg 14%
    16:00 +19°C° 0 mm 2 m/s 699 mmHg 15%
    17:00 +18°C° 0 mm 2 m/s 699 mmHg 15%
    18:00 +17°C° 0 mm 3 m/s 699 mmHg 16%
    19:00 +14°C° 0 mm 3 m/s 699 mmHg 17%
    20:00 +14°C° 0 mm 3 m/s 699 mmHg 17%
    21:00 +14°C° 0 mm 3 m/s 699 mmHg 17%
    22:00 +13°C° 0 mm 3 m/s 699 mmHg 18%
    23:00 +13°C° 0 mm 3 m/s 699 mmHg 18%
    Voir plus